This is the latest recevied weather packets stored in our database for station/object K4ROM-1. If no packets are shown the sender has not sent any weather packets the latest 10 day(s).
| Time | Temp. | Humidity | Pressure | Rain* | Wind** | Luminosity | Snow |
|---|---|---|---|---|---|---|---|
| 1777270803 | 12.22° C | 77% | 1022 hPa | 0 mm | 0.89 m/s, 66° | - | - |
| 1777270203 | 12.22° C | 76% | 1021.9 hPa | 0 mm | 0.45 m/s, 56° | - | - |
| 1777269603 | 12.22° C | 76% | 1022.3 hPa | 0 mm | 0.45 m/s, 83° | - | - |
| 1777269003 | 12.22° C | 76% | 1022.3 hPa | 0 mm | 0.89 m/s, 58° | - | - |
| 1777268403 | 12.22° C | 76% | 1022.1 hPa | 0 mm | 0.45 m/s, 42° | - | - |
| 1777267803 | 12.22° C | 77% | 1022 hPa | 0 mm | 0.89 m/s, 13° | - | - |
| 1777267203 | 12.78° C | 76% | 1022.1 hPa | 0 mm | 1.34 m/s, 17° | - | - |
| 1777266603 | 12.78° C | 76% | 1022.1 hPa | 0 mm | 0.89 m/s, 73° | - | - |
| 1777266003 | 12.78° C | 76% | 1021.9 hPa | 0 mm | 0.45 m/s, 30° | - | - |
| 1777265403 | 12.78° C | 76% | 1021.8 hPa | 0 mm | 1.34 m/s, 73° | - | - |
| 1777264804 | 12.78° C | 76% | 1021.4 hPa | 0 mm | 0.89 m/s, 59° | - | - |
| 1777264204 | 13.33° C | 76% | 1021.5 hPa | 0 mm | 2.24 m/s, 350° | - | - |
| 1777263603 | 13.33° C | 78% | 1021.4 hPa | 0 mm | 0.89 m/s, 39° | - | - |
| 1777263004 | 12.78° C | 79% | 1021.2 hPa | 0 mm | 0.89 m/s, 42° | - | - |
| 1777262403 | 12.78° C | 80% | 1021.1 hPa | 0 mm | 0.89 m/s, 5° | - | - |
| 1777261803 | 12.78° C | 80% | 1020.9 hPa | 0 mm | 0.89 m/s, 356° | - | - |
| 1777261203 | 12.78° C | 81% | 1020.9 hPa | 0 mm | 0.45 m/s, 3° | - | - |
| 1777260603 | 12.78° C | 81% | 1020.6 hPa | 0 mm | 0.89 m/s, 31° | - | - |
| 1777260003 | 12.78° C | 80% | 1020.7 hPa | 0 mm | 0.45 m/s, 57° | - | - |
| 1777259403 | 12.78° C | 80% | 1020.5 hPa | 0 mm | 0 m/s | - | - |
| 1777258803 | 13.33° C | 80% | 1020.6 hPa | 0 mm | 0.89 m/s, 18° | - | - |
| 1777258203 | 13.33° C | 79% | 1020.2 hPa | 0 mm | 0.45 m/s, 0° | - | - |
| 1777257603 | 13.89° C | 78% | 1020.2 hPa | 0 mm | 1.34 m/s, 35° | - | - |
| 1777257003 | 13.89° C | 78% | 1019.9 hPa | 0 mm | 0.45 m/s, 20° | - | - |
| 1777256403 | 13.89° C | 77% | 1019.9 hPa | 0 mm | 1.79 m/s, 37° | - | - |
* Rain latest hour (hover to see other rain measurements)
** Current wind speed in m/s (hover to see current wind gust speed)